Regional Weather Roundup
Issued by NWS Charleston, SC

Current Version | Previous Version | Graphics & Text | Print | Product List | Glossary On
Versions: 1 2 3 4 5 6 7 8 9 10 11 12 13 14 15 16 17 18 19 20 21 22 23 24 25 26 27 28 29 30 31 32 33 34 35 36 37 38 39 40 41 42 43 44 45 46 47 48 49 50
000 ASUS42 KCHS 042212 RWRCHS REGIONAL WEATHER ROUNDUP NATIONAL WEATHER SERVICE CHARLESTON SC 600 PM EDT SAT JUL 04 2015 NOTE: "FAIR" INDICATES FEW OR NO CLOUDS BELOW 12,000 FEET WITH NO SIGNIFICANT WEATHER AND/OR OBSTRUCTIONS TO VISIBILITY. NOT ALL STATIONS ARE QUALITY CONTROLLED BY THE NATIONAL WEATHER SERVICE. USE DATA WITH CAUTION...ESPECIALLY DEWPOINT OBSERVATIONS. SCZ027-030-031-034>040-042>050-042300- ...SOUTHEAST SOUTH CAROLINA... CITY SKY/WX TMP DP RH WIND PRES REMARKS N CHARLESTON MOSUNNY 90 69 50 SW10 30.05S HX 94 WATERFRONT PAR N/A 84 78 82 S13 30.04R HX 95 MOUNT PLEASANT LGT RAIN 88 77 70 S15 30.06S HX 100 JOHNS ISLAND FAIR 86 77 74 S13 30.07S HX 97 PINOPOLIS NOT AVBL MONCKS CORNER FAIR 90 70 51 SW6 30.05S HX 95 SUMMERVILLE FAIR 90 72 55 CALM 30.05F HX 96 BEAUFORT MCAS MOSUNNY 86 77 74 S8 30.06S HX 97 BEAUFORT ARPT FAIR 86 77 74 S7 30.06S HX 97 HILTON HEAD IS PTSUNNY 82 77 83 S6 30.08S THUNDER HX 91 WALTERBORO PTCLDY 88 68 51 SW7 30.05F HX 91 ALLENDALE FAIR 84 70 61 SW13G22 30.07R ...SOUTHERN MIDLANDS AND PEE DEE... CITY SKY/WX TMP DP RH WIND PRES REMARKS GEORGETOWN NOT AVBL KINGSTREE NOT AVBL ORANGEBURG SUNNY 88 69 53 SW13 30.04S HX 92 BARNWELL FAIR 88 72 58 SW10G16 30.05S HX 94 AIKEN NOT AVBL MANNING FAIR 88 66 48 S8 30.03S HX 90 COLUMBIA MOSUNNY 90 69 50 SW7 30.01F HX 94 SUMTER SUNNY 88 69 53 SW15 30.01S HX 91 FLORENCE SUNNY 88 70 55 SW12 30.01S HX 93 MYRTLE BEACH MOSUNNY 88 73 62 S16G23 30.04F HX 96 N MYRTLE BEACH MOSUNNY 84 75 74 SW17G26 30.03R HX 92 $$ GAZ063-065-086>088-099>101-113>116-118-119-134>141-150-042300- ...SOUTHEAST GEORGIA... CITY SKY/WX TMP DP RH WIND PRES REMARKS SAVANNAH ARPT PTSUNNY 79 67 66 VRB5G25 30.09R THUNDER HUNTER AAF TSTM 73 72 94 W14 30.13R VSB<1/4 FORT STEWART LGT RAIN 74 70 87 S9 30.09R STATESBORO NOT AVBL SYLVANIA RAIN 75 73 91 SW3 30.09F CLAXTON FAIR 73 73 100 CALM 30.08F ...CSRA...CENTRAL AND FAR SOUTHEAST GEORGIA... CITY SKY/WX TMP DP RH WIND PRES REMARKS THOMSON PTSUNNY 86 74 67 SW5 30.09S HX 94 AUGUSTA-BUSH PTSUNNY 85 71 63 SW9 30.04R HX 90 AUGUSTA-DANIEL PTSUNNY 85 69 58 SW9 30.06R SWAINSBORO FAIR N/A N/A N/A W5 30.09R VIDALIA LGT RAIN 79 70 73 SW6 30.08F EASTMAN FAIR 79 78 98 SE7 30.09F HAZLEHURST FAIR 74 74 99 CALM 30.06F ALMA LGT RAIN 74 71 91 CALM 30.08F WAYCROSS PTSUNNY 80 75 84 NW5 30.10S THUNDER JESUP LGT RAIN 81 72 74 N8G16 30.12R BAXLEY LGT RAIN 73 72 94 CALM 30.08F BRUNSWICK PTSUNNY 77 73 88 S3 30.08F SAINT SIMONS LGT RAIN 74 71 91 NE3 30.08F $$ SCZ027-028-034-036>038-045-046-048>050-GAZ119-141-042300- ...LAKE AND SUPPLEMENTAL COASTAL OBSERVATIONS... STATION/POSITION TIME TEMP WIND PRES WAVE SWELL AIR SEA DIR/SP/G HT/PER HT/PER/DIR (UTC) (F) (DEG/KT/KT) (MB) (FT/S) (FT/S/D) UPR LAKE MARION NOT AVBL WINYAH BAY 2045 89 240/ 6 1016.0 LAKE MURRAY 2100 85 250/ 11/ 16 1015.9S ACE BASIN NERRS NOT AVBL FORT PULASKI 2100 84 85 160/ 8/ 13 1018.5R SAPELO ISLAND 2100 75 230/ 32 1019.0R $$ ANZ835-935-AMZ111-154-330-350-352-354-370-450-454-472-042300- ...C-MAN AND BUOY OBSERVATIONS... STATION/POSITION TIME TEMP WIND PRES WAVE SWELL AIR SEA DIR/SP/G HT/PER HT/PER/DIR (UTC) (F) (DEG/KT/KT) (MB) (FT/S) (FT/S/D) BUOY 41004 2150 82 82 210/ 14/ 16 1017.7F 3/ 9 2/ 9 BUOY 41008 2150 78 80 270/ 14/ 17 1019.0S 3/ 9 2/120/ 9 FOLLY BEACH CMAN 2100 82 200/ 14/ 16 1018.3R CAPERS NEARSHORE NOT AVBL FRIPP NEARSHORE NOT AVBL STATION/POSITION TIME TEMP WIND PRES WAVE SWELL AIR SEA DIR/SP/G HT/PER HT/PER/DIR (UTC) (F) (DEG/KT/KT) (MB) (FT/S) (FT/S/D) 5E ST. MARYS GA NOT AVBL FRYING PAN BUOY 2150 81 79 210/ 12/ 14 1017.9F 4/ 6 3/180/ 6 BUOY 41025 2150 82 81 220/ 21/ 23 1015.5R 6/ 6 2/160/13 CAPE LOOKOUT NC 2100 83 220/ 13/ 16 1015.9F BUOY 41002 2150 82 81 220/ 10/ 14 1020.5F 5/ 9 5/140/ 9 BUOY 41010 2120 84 85 170/ 6/ 6 1020.4F ST AUGUSTINE FL 2200 76 77 150/ 5/ 6 1020.3R $$

USA.gov is the U.S. government's official web portal to all federal, state and local government web resources and services.